Terminal Aerodrome Forecast
Issued by NWS Flagstaff, AZ

Home | Current Version | Previous Version | Text Only | Print | Product List | Glossary On
Versions: 1 2 3 4 5 6 7 8 9 10 11 12 13 14 15 16
000
FTUS45 KFGZ 162300
TAFFLG
TAF
KFLG 162334Z 1700/1724 22006KT P6SM VCSH BKN050 OVC100
     FM170800 VRB04KT P6SM BKN040 PROB30 1709/1714 4SM -TSRA
      BKN030CB
     FM171400 09008KT P6SM OVC060
      TEMPO 1716/1720 4SM -TSRA BKN030CB=

USA.gov is the U.S. government's official web portal to all federal, state and local government web resources and services.